COSMOS 2491 DEB, 45130

Orbit data source: Space-Track

COSMOS 2491 DEB, 45130 is space debris in LEO originally from a launch on Wed, 25 Dec 2013 UTC launched from the Plesetsk Missile And Space Complex (PKMTR). Debris objects in space refer to the collection of defunct objects orbiting the Earth. Examples of debris include non-operational satellites, rocket bodies, and fragments generated from explosions, collisions, or faulty payload assembly.

Loading next visibility...
Identifier
45130, 2013-076AC
Orbit
LEO
Country
Flag of CISCIS
Related business
Manufacturer
TsNIIKhM
Mission
Spacecraft
Bus & Motor
Unknown
Mass
Unknown
Launch date (UTC)
2013-12-25 (12 years ago)
Launch vehicle
Unknown
Launch site
Plesetsk Missile And Space Complex (PKMTR)
Object type
Payload
Rocket body
Debris
Shape & HBR
Unknown shape, 0.1 m
Radar Cross Section
Small (<0.1 m²)

Expand to show TLE details & history
Last TLE update: 2 days ago

TLE from 2 days ago
0 COSMOS 2491 DEB
1 45130U 13076AC  26034.69593541  .00001710  00000-0  82708-2 0  9993
2 45130  82.4618 190.4497 0097974  79.1931 282.0175 12.71148557277725
Epoch: 2026-02-03T16:42Z
TLE epoch observation values (Epoch: 2026-02-03T16:42:08.819Z)
Latitude
0.00005°
Longitude
166.03979°
Altitude
1,364.896 km
Speed
7.183 km/s
True Right ascension
12h 41m 47s
True Declination
0° 00' 00"
Sunlit
Object was in full shadow at epoch
Visualization orbit readout
Latitude
Unknown
Longitude
Unknown
Altitude
Unknown
Speed
Unknown
Apparent Right ascension
Unknown
Apparent Declination
Unknown
Sunlit
N/A
Visualization observer readout
Local Sidereal Time
14:49:08
Azimuth
Unknown
Elevation
Unknown
Doppler factor
Unknown
Orbital elements
Apogee altitude
1,450.533 km
Perigee altitude
1,298.621 km
Semi-major axis
7,752.714 km
Eccentricity
0.0098
Inclination
82.4618°
RAAN
190.4497°
Arg. of periapsis
79.1931°
True anomaly
280.91667°
Mean anomaly
282.0175°
Eccentric anomaly
281.46736°
Mean motion
3.17953 °/min
Orbital period
113.22 mins
BSTAR
0.0082708
Loading maneuver chart data...
Computing Atmospheric mass density...
Loading historical data...
Loading historical data...
Loading historical data...
Loading historical data...
Loading historical data...
Loading historical data...
Loading historical data...

Documentation

Showing up to 5 results
|